Location: Melara
(45.0500°N, 11.1833°E)
Time: 23:58:35
(UTC+00:00)

Cosmos 1544 Rocket - Pass Details

Date: 26 May 2022
Orbit: 603 x 631 km, 82.5° (Epoch: 02 July)

Event Time Altitude Azimuth Distance (km) Brightness Sun altitude
Rises 01:04:39 0° 351° (N) 2,917 7.9 -19.1°
Reaches altitude 10° 01:06:54 10° 351° (N) 2,001 6.9 -18.9°
Maximum altitude 01:11:21 90° 213° (SSW) 625 3.5 -18.5°
Enters shadow 01:13:18 33° 173° (S) 1,045 4.3 -18.3°
